Bolton Field, OH

12:28 PM EST on February 23, 2018 (GMT -0500)
Bolton

Weather History for KTZR - September, 2013

Change the Weather History Date:

Monday, September 30, 2013

  Actual Average Record
Temperature  
Mean Temperature 64 °F -  
Max Temperature 69 °F 70 °F 87 °F (2002)
Min Temperature 57 °F 49 °F 37 °F (2005)
Degree Days  
Heating Degree Days 2    
Growing Degree Days 14 (Base 50)    
Moisture  
Dew Point 59 °F    
Average Humidity 91    
Maximum Humidity 100    
Minimum Humidity 68    
Precipitation  
Precipitation 0.00 in - - ()
Sea Level Pressure  
Sea Level Pressure 30.03 in    
Wind  
Wind Speed 4 mph (SSW)    
Max Wind Speed 9 mph    
Max Gust Speed -    
Visibility 9 miles    
Events Rain    
Averages and records for this station are not official NWS values.
T = Trace of Precipitation, MM = Missing Value Source: NWS Daily Summary

Daily Weather History Graph

Daily Weather History Graph

Search for Another Location

Airport or City:

Trip Planner

Search our weather history database for the weather conditions in past years. The results will help you decide how hot, cold, wet, or windy it might be!

Date:

Astronomy

Sep. 30, 2013 Rise Set
Actual Time 7:28 AM EDT 7:16 PM EDT
Civil Twilight 7:01 AM EDT 7:43 PM EDT
Nautical Twilight 6:29 AM EDT 8:14 PM EDT
Astronomical Twilight 5:58 AM EDT 8:45 PM EDT
Moon 3:04 AM EDT (9/30) 4:46 PM EDT (9/30)
Length of Visible Light 12h 41m
Length of Day
11h 48m
Waning Crescent, 19% of the Moon is Illuminated
Sep 30
Waning Crescent
Oct 4
New
Oct 11
First Quarter
Oct 18
Full
Oct 26
Last Quarter

Hourly Weather History & Observations

Time (EDT) Temp. Dew Point Humidity Pressure Visibility Wind Dir Wind Speed Gust Speed Precip Events Conditions
12:15 AM 62.2 °F 59.0 °F 89% 30.03 in 10.0 mi SSW 4.6 mph - N/A   Overcast
12:35 AM 62.1 °F 59.0 °F 90% 30.03 in 10.0 mi SSW 4.6 mph - N/A   Overcast
12:55 AM 61.9 °F 58.8 °F 90% 30.03 in 10.0 mi SW 3.5 mph - N/A   Overcast
1:15 AM 61.9 °F 58.6 °F 89% 30.03 in 10.0 mi SW 3.5 mph - N/A   Overcast
1:35 AM 62.4 °F 58.6 °F 87% 30.03 in 10.0 mi SW 5.8 mph - N/A   Overcast
1:55 AM 61.7 °F 59.0 °F 91% 30.04 in 10.0 mi SW 5.8 mph - N/A   Overcast
2:15 AM 61.0 °F 59.2 °F 94% 30.04 in 10.0 mi SSW 3.5 mph - N/A   Light Drizzle
2:35 AM 61.0 °F 59.2 °F 94% 30.03 in 10.0 mi SW 3.5 mph - N/A   Overcast
2:55 AM 60.8 °F 59.2 °F 94% 30.03 in 10.0 mi SW 3.5 mph - N/A   Overcast
3:15 AM 60.8 °F 59.4 °F 95% 30.02 in 10.0 mi Calm Calm - N/A   Overcast
3:35 AM 60.6 °F 59.4 °F 96% 30.02 in 10.0 mi SW 3.5 mph - N/A   Overcast
3:55 AM 60.4 °F 59.2 °F 96% 30.02 in 10.0 mi Calm Calm - N/A   Overcast
4:15 AM 60.4 °F 59.2 °F 96% 30.02 in 10.0 mi Calm Calm - N/A   Overcast
4:35 AM 60.4 °F 59.4 °F 96% 30.02 in 7.0 mi SSW 3.5 mph - N/A Rain Heavy Rain
4:55 AM 60.8 °F 59.2 °F 94% 30.02 in 10.0 mi Calm Calm - N/A Rain Light Rain
5:15 AM 60.4 °F 59.5 °F 97% 30.02 in 7.0 mi SE 4.6 mph - N/A   Overcast
5:35 AM 60.4 °F 59.2 °F 96% 30.02 in 10.0 mi SSE 3.5 mph - N/A   Overcast
5:55 AM 60.3 °F 59.4 °F 97% 30.02 in 10.0 mi South 3.5 mph - N/A   Overcast
6:15 AM 60.3 °F 59.2 °F 96% 30.02 in 10.0 mi South 4.6 mph - N/A   Overcast
6:35 AM 60.6 °F 59.0 °F 94% 30.02 in 10.0 mi South 5.8 mph - N/A   Overcast
6:55 AM 60.4 °F 59.0 °F 95% 30.03 in 10.0 mi South 4.6 mph - N/A   Overcast
7:15 AM 60.4 °F 59.0 °F 95% 30.02 in 10.0 mi SSW 5.8 mph - N/A   Overcast
7:22 AM 60.8 °F 59.0 °F 94% 30.03 in 10.0 mi SSW 5.8 mph - N/A   Overcast
7:50 AM 60.8 °F 57.2 °F 88% 30.03 in 10.0 mi South 6.9 mph - N/A   Overcast
8:50 AM 60.8 °F 59.0 °F 94% 30.05 in 7.0 mi SSW 5.8 mph - N/A   Light Drizzle
9:50 AM 60.8 °F 59.0 °F 94% 30.05 in 7.0 mi SSW 4.6 mph - N/A   Overcast
10:50 AM 62.6 °F 60.8 °F 94% 30.05 in 7.0 mi SSW 5.8 mph - N/A   Overcast
11:50 AM 68.0 °F 60.8 °F 78% 30.05 in 10.0 mi SW 8.1 mph - N/A   Overcast
12:50 PM 69.8 °F 60.8 °F 73% 30.04 in 10.0 mi WSW 6.9 mph - N/A   Overcast
1:50 PM 69.8 °F 60.8 °F 73% 30.02 in 10.0 mi WSW 6.9 mph - N/A   Overcast
2:58 PM 69.8 °F 59.0 °F 68% 30.00 in 10.0 mi SW 9.2 mph - N/A   Overcast
7:35 PM 66.6 °F 60.1 °F 80% 30.01 in 10.0 mi WSW 3.5 mph - N/A   Overcast
7:55 PM 66.2 °F 60.1 °F 81% 30.01 in 10.0 mi Calm Calm - N/A   Overcast
8:15 PM 65.8 °F 60.3 °F 82% 30.01 in 10.0 mi Calm Calm - N/A   Overcast
8:35 PM 64.6 °F 59.9 °F 85% 30.02 in 10.0 mi Calm Calm - N/A   Overcast
8:55 PM 64.6 °F 59.9 °F 85% 30.02 in 10.0 mi SSW 3.5 mph - N/A   Overcast
9:15 PM 63.9 °F 60.1 °F 87% 30.02 in 10.0 mi SSW 3.5 mph - N/A   Overcast
9:35 PM 63.9 °F 60.1 °F 87% 30.02 in 10.0 mi Calm Calm - N/A   Overcast
9:55 PM 63.7 °F 60.1 °F 88% 30.02 in 10.0 mi Calm Calm - N/A   Overcast
10:15 PM 61.9 °F 59.5 °F 92% 30.02 in 7.0 mi Calm Calm - N/A   Overcast
10:35 PM 60.4 °F 59.2 °F 96% 30.03 in 7.0 mi Calm Calm - N/A   Scattered Clouds
10:55 PM 59.0 °F 58.5 °F 98% 30.03 in 7.0 mi Calm Calm - N/A   Scattered Clouds
11:15 PM 58.1 °F 57.6 °F 98% 30.03 in 5.0 mi Calm Calm - N/A   Mostly Cloudy
11:35 PM 58.1 °F 57.9 °F 99% 30.03 in 4.0 mi Calm Calm - N/A   Scattered Clouds
11:55 PM 57.4 °F 57.4 °F 100% 30.03 in 3.0 mi SSW 3.5 mph - N/A   Clear